Location: Melbourne
(37.8666°S, 145.1333°E)
Time: 01:50:49
(UTC+10:00)

Iridium 72 - Visible Passes

Search period start: 01 October 2014 00:00
Search period end: 11 October 2014 01:00
Orbit: 776 x 779 km, 86.4° (Epoch: 30 September)

Date Brightness Start Highest point End Pass type
(mag) Time Alt. Az. Time Alt. Az. Time Alt. Az.
01 Oct 8.7 05:12:49 10° NE 05:16:30 20° E 05:20:14 10° SE visible
01 Oct 8.7 19:05:19 10° SW 19:08:53 19° W 19:12:26 10° WNW visible
02 Oct 9.3 04:43:00 10° E 04:43:22 10° ESE 04:43:43 10° ESE visible
04 Oct 8.0 05:12:00 10° NE 05:16:26 29° E 05:20:54 10° SSE visible
04 Oct 9.2 19:06:35 10° SW 19:08:45 13° WSW 19:10:55 10° WNW visible
05 Oct 8.7 05:40:14 10° ENE 05:43:12 16° E 05:46:12 10° SE visible
07 Oct 7.1 06:11:30 10° NNE 06:16:24 42° E 06:21:20 10° SSE visible
08 Oct 8.3 05:39:06 10° NE 05:43:06 23° E 05:47:07 10° SSE visible
09 Oct 8.9 05:08:05 10° E 05:09:55 12° ESE 05:11:46 10° ESE visible
10 Oct 6.3 06:11:15 10° NNE 06:16:24 61° E 06:21:37 10° S visible
